Regional Weather Roundup
Issued by NWS Grand Forks, ND

Home | Current Version | Previous Version | Graphics & Text | Print | Product List | Glossary On
Versions: 1 2 3 4 5 6 7 8 9 10 11 12 13 14 15 16 17 18 19 20 21 22 23 24 25 26 27 28 29 30 31 32 33 34 35 36 37 38 39 40 41 42 43 44 45 46 47 48 49 50
000
ASUS43 KFGF 270710
RWRFGF
PRAIRIE TO PINES  WEATHER ROUNDUP
NATIONAL WEATHER SERVICE EASTERN NORTH DAKOTA/GRAND FORKS ND
100 AM CST FRI FEB 27 2015

 **SATELLITE DATA USED TO AUGMENT SKY COVER AT AUTOMATED STATIONS**
 *****  WEATHER ACROSS EASTERN NORTH DAKOTA  *****

CITY           SKY/WX    TMP DP  RH WIND       PRES   REMARKS
GRAND FORKS    PTCLDY    -9 -14  78 W7        30.47F WCI -24
GRAND FRKS AFB PTCLDY    -6 -14  69 NW7       30.47S WCI -21
GRAND FRKS NWS   N/A     -9 N/A N/A W1          N/A
DEVILS LAKE    CLEAR    N/A N/A N/A MISG        N/A
FARGO          CLEAR     -6 -13  71 W7        30.50F WCI -20
WAHPETON ARPT  SUNNY     -8 -13  77 W6        30.51S WCI -21
$$

 ***** WEATHER ACROSS CENTRAL AND WESTERN NORTH DAKOTA  *****

CITY           SKY/WX    TMP DP  RH WIND       PRES   REMARKS
BISMARCK       CLEAR     -8 -13  78 SW3       30.48F
MINOT          PTCLDY   -10 -17  71 SW6       30.42F WCI -23
JAMESTOWN      PTCLDY    -8 -14  74 W8        30.45F WCI -24
MINOT AFB      PTCLDY   -12 -18  74 W8        30.42F WCI -28
GARRISON         N/A    -11 -16  78 CALM      30.42F
WILLISTON      PTCLDY    -8 -12  83 CALM      30.39F
DICKINSON      CLEAR     -4 -10  75 S8        30.33F WCI -19
HETTINGER      CLEAR     -7 -11  83 CALM      30.37F
$$

 *****  OTHER AIRPORT OBSERVATIONS IN OUR AREA  *****

CITY           SKY/WX    TMP DP  RH WIND       PRES   REMARKS
WALHALLA         N/A      0  -9  65 W7        30.43F WCI -13
GRAFTON AIRPOR NOT AVBL
VALLEY CITY AR FAIR      -6 -11  77 W14       30.46S WCI -26
CANDO          FAIR     -13 -18  77 W9        30.43S WCI -31
CAVALIER APRT  FAIR       0  -8  71 W9        30.43F WCI -16
GWINNER        SUNNY     -4 -13  65 W12       30.49F WCI -22
SHEYENNE NWR     N/A    -14 -21  70 W5        29.95S WCI -26
ROLLA          FAIR      -2 -13  60 NW9       30.37F WCI -18
 ***** THE ABOVE OBSERVATIONS ARE NON NWS ARE NOT QUALITY
       CONTROLLED AND MAY MIS-REPORT RAIN FOR SNOW...
$$

  *****  WEATHER ACROSS NORTHERN MINNESOTA  *****

CITY           SKY/WX    TMP DP  RH WIND       PRES   REMARKS
FLAG ISLAND    PTCLDY    -8 -11  84 NW9       30.36S WCI -25
WARROAD        PTCLDY    -6 -11  77 W7        30.39S WCI -20
ROSEAU         FAIR      -6 -11  77 W6        30.41R WCI -18
HALLOCK        NOT AVBL
THF RVR FALLS  PTCLDY    -8  -8 100 CALM      30.43S
BAUDETTE       PTCLDY    -9 -13  83 W5        30.36S WCI -20
WASKISH        PTCLDY    -8  -9  92 SW8       30.39S WCI -23
CROOKSTON      PTCLDY    -9 -15  77 SW3       30.48S
STEPHEN NDAWN    N/A     -9 -15  77 SW5         N/A  WCI -21
GREENBUSH NDAW   N/A     -9 -15  77 VRB6        N/A  WCI -23
$$
  *****  WEATHER ACROSS CENTRAL AND WEST MINNESOTA  *****

CITY           SKY/WX    TMP DP  RH WIND       PRES   REMARKS
FOSSTON        PTCLDY   -17 -20  83 S3        30.43S
BEMIDJI        PTCLDY    -8 -13  80 W3        30.39F
PARK RAPIDS    CLEAR    -11 -16  78 W3        30.39F
ELBOW LAKE     FAIR      -7 -11  82 W5        30.48S WCI -18
WADENA         CLEAR     -9 -15  77 W5        30.43S WCI -21
DETROIT LAKES  CLEAR     -4  -8  84 W3        30.44S
MOORHEAD       FAIR      -6  -9  84 W6        30.50S WCI -18
FERGUS FALLS   CLEAR     -8 -13  77 CALM      30.52F
MORRIS MN      CLEAR     -9 -15  77 NW7       30.48S WCI -24
STAPLES        CLEAR    -11 -15  84 W3        30.43S
$$
  *****  WEATHER ELSEWHERE ACROSS MINNESOTA  *****

CITY           SKY/WX    TMP DP  RH WIND       PRES   REMARKS
DULUTH         CLEAR     -4 -15  59 NW16      30.33F WCI -25
INTRNTL FALLS  PTCLDY   -14 -20  74 W6        30.36F WCI -28
ELY            CLEAR    -17 -22  76 W5        30.33S WCI -29
CLOQUET        CLEAR     -6 -15  65 W6        30.38S WCI -18
WHEATON        CLEAR     -9 -15  77 W5        30.53S WCI -21
BRAINERD       CLEAR    -10 -15  78 W6        30.44S WCI -23
HIBBING        CLEAR     -7 -13  75 W3        30.36S
ALEXANDRIA     CLEAR     -6 -10  83 W7        30.45S WCI -20
SAINT CLOUD    CLEAR     -4 -10  75 NW5       30.47S WCI -15
MINNEAPOLIS    CLEAR      1  -9  62 W5        30.50R WCI  -9
$$

  *****  WEATHER ACROSS SOUTH DAKOTA  *****

CITY           SKY/WX    TMP DP  RH WIND       PRES   REMARKS
SIOUX FALLS    CLEAR     -7 -12  79 W6        30.52S WCI -20
BROOKINGS      NOT AVBL
WATERTOWN      CLEAR    -12 -16  82 W5        30.45S WCI -24
HURON          MOCLDY   -17 -21  82 W6        30.54S WCI -32
SISSETON         N/A     -5 -11  75 NW8       30.49S WCI -20
ABERDEEN       CLEAR    -13 -18  78 SW7       30.52F WCI -29
MITCHELL       CLEAR     -4  -9  79 W5        30.56S WCI -15
PIERRE         CLEAR     -3  -7  82 SW6       30.49F WCI -15
MOBRIDGE       PTCLDY    -9 -14  78 N5        30.44F WCI -20
RAPID CITY     CLEAR    -10 -15  78 CALM      30.33F
$$

  *****  SOME WEATHER IN NEARBY STATES *****

CITY           SKY/WX    TMP DP  RH WIND       PRES   REMARKS
GLASGOW MT     CLEAR      1  -6  72 E12       30.27F WCI -16
GREAT FALLS MT PTCLDY    11   4  73 S8        29.99F WCI  -1
CHEYENNE WY    LGT SNOW   6   2  83 S15       30.03F FOG     WCI -12
SCOTTSBLUFF NE CLOUDY     8   2  76 SE10      30.27F WCI  -6
OMAHA NE       CLEAR      1  -3  83 CALM      30.60R
DES MOINES IA  CLEAR     -2  -8  76 NW6       30.56S WCI -14
DAVENPORT IA   CLEAR    -13 -18  78 W8        30.51R WCI -30
CHICAGO IL     CLEAR      2  -8  63 NW8       30.43R WCI -12
EAU CLAIRE WI  CLEAR     -3 -12  65 W3        30.45S
LA CROSSE WI   CLEAR     -5 -10  79 CALM      30.50R
$$

  *****  SOME NATIONAL WEATHER *****

CITY           SKY/WX    TMP DP  RH WIND       PRES   REMARKS
LA GUARDIA NY  MOCLDY    22   8  55 N6        30.19R WCI  14
RALEIGH NC     CLOUDY    29  26  89 CALM      30.19R FOG
ATLANTA GA     PTCLDY    33  28  81 N8        30.18S
NEW ORLEANS LA MOCLDY    39  32  76 N18       30.30R
OKLAHOMA CITY  CLOUDY    23   0  36 NE13      30.49R WCI  11
ALBUQUERQUE NM SNOW      23  20  88 E23       29.96S VSB 1/2 WCI   7
SALT LAKE CITY PTCLDY    32  29  88 SE7       29.89F
LOS ANGELES CA MOCLDY    57  53  86 SW5       29.86S
BOISE ID       MOCLDY    38  32  79 CALM      29.88F
SEATTLE WA     LGT RAIN  49  47  93 SE7       29.84F
$$

*** WEATHER ACROSS MANITOBA...SASKATCHEWAN AND ONTARIO ***
                ***ONTARIO***

CITY           SKY/WX    TMP DP  RH WIND       PRES   REMARKS
GERALDTON      CLEAR     -6 -11  77 W8        30.16S WCI -21
THUNDER BAY    CLEAR     -6 -13  71 SW8       30.34S WCI -21
SIOUX LOOKOUT  CLEAR     -9 -15  77 VRB2      30.25F
TORONTO        MOCLDY     0  -9  65 NW8       30.31R WCI -15
BIG TROUT LK   CLEAR      0  -9  65 W12       30.02F WCI -18
PICKLE LAKE    NOT AVBL
DRYDEN         CLEAR     -8 -13  77 W8        30.27F WCI -23
KENORA         CLEAR     -8 -13  77 W7        30.31F WCI -22
$$
                *** MANITOBA***

CITY           SKY/WX    TMP DP  RH WIND       PRES   REMARKS
BRANDON        CLEAR    -11 -17  77 W13       30.41S WCI -32
DAUPHIN        CLEAR      1  -9  60 W16G22    30.38F WCI -18
ISLAND LAKE    CLEAR      0 -13  55 W9        30.14F WCI -16
PILOT MOUND      N/A     -8 -13  77 W6          N/A  WCI -21
THE PAS        CLOUDY     3  -9  55 W14G20    30.23F WCI -15
THOMPSON       PTCLDY     7  -9  47 W12       30.03F WCI  -9
WINNIPEG       CLEAR     -6 -15  65 W8        30.41F WCI -21
CHURCHILL      CRYSTALS   1  -4  78 NW20G25   29.85S WCI -20
GILLAM         PTCLDY     7  -8  51 W14G21    29.94F WCI -10
$$
                ***SASKATCHEWAN***

CITY           SKY/WX    TMP DP  RH WIND       PRES   REMARKS
ESTEVAN        CLEAR    -15 -20  76 S7        30.38F WCI -31
KINDERSLEY     PTCLDY    -4  -9  77 S8        30.17F WCI -19
LLOYDMINSTER   MOCLDY    -6 -11  77 S6        30.14F WCI -18
PRINCE ALBERT  CLEAR    -15 -18  84 SW6       30.30F WCI -29
REGINA         CLEAR    -13 -18  77 SE9       30.33F WCI -31
YORKTON        CLEAR    -11 -17  77 S3        30.35F
N. BATTLEFORD  CLEAR     -8 -13  77 SE13      30.24F WCI -28
LA RONGE       PTCLDY     1  -9  60 SW8       30.18F WCI -12
SASKATOON      CLEAR     -9 -15  77 S9        30.28F WCI -27
SWIFT CURRENT  CLEAR      1  -6  71 S22G28    30.13F WCI -21
$$
NOTE: THESE ARE AUTOMATED STATIONS WITH LIMITED QUALITY CONTROL
      "FAIR" INDICATES FEW OR NO CLOUDS BELOW 12,000 FEET WITH NO
      SIGNIFICANT WEATHER AND/OR OBSTRUCTIONS TO VISIBILITY.
      SKY/WX - SKY CONDITION AND SIGNIFICANT WEATHER.
      TMP - AIR TEMPERATURE.    DP   - DEWPOINT TEMPERATURE.
      RH  - RELATIVE HUMIDITY.  PRES - PRESSURE.
      HX  - HEAT INDEX.         WCI  - WIND CHILL INDEX.
$



USA.gov is the U.S. government's official web portal to all federal, state and local government web resources and services.